• In Belarus
  • List of Countries
  • For 7 days
  • Water Temperature
  • Satellite Maps
  • Weather Map
  • Weather Widgets
  • user-avatar
    Login

    Hourly Weather Yaremcha

    Today, 21 September, Friday

    Time Temperature Precipitation Wind Pressure Humidity
    00:00 +20°C° 0 mm 1 mps 711 mmHg 83%
    01:00 +19°C° 0 mm 1 mps 711 mmHg 80%
    02:00 +14°C° 0 mm 0 mps 709 mmHg 91%
    03:00 +18°C° 0 mm 2 mps 710 mmHg 66%
    04:00 +18°C° 0 mm 2 mps 710 mmHg 64%
    05:00 +18°C° 0 mm 2 mps 710 mmHg 61%
    06:00 +18°C° 0 mm 2 mps 710 mmHg 58%
    07:00 +18°C° 0 mm 2 mps 710 mmHg 57%
    08:00 +18°C° 0 mm 2 mps 710 mmHg 60%
    09:00 +19°C° 0 mm 2 mps 710 mmHg 70%
    10:00 +22°C° 0 mm 1 mps 710 mmHg 67%
    11:00 +23°C° 0 mm 1 mps 710 mmHg 65%
    12:00 +24°C° 0 mm 1 mps 710 mmHg 64%
    13:00 +24°C° 0 mm 2 mps 710 mmHg 64%
    14:00 +24°C° 0 mm 2 mps 710 mmHg 62%
    15:00 +24°C° 0 mm 3 mps 710 mmHg 58%
    16:00 +24°C° 0 mm 3 mps 710 mmHg 60%
    17:00 +23°C° 0 mm 2 mps 709 mmHg 68%
    18:00 +20°C° 0 mm 2 mps 709 mmHg 76%
    19:00 +20°C° 0 mm 2 mps 708 mmHg 76%
    20:00 +19°C° 0 mm 2 mps 709 mmHg 71%
    21:00 +19°C° 0 mm 2 mps 708 mmHg 73%
    22:00 +18°C° 0 mm 3 mps 708 mmHg 75%
    23:00 +18°C° 0 mm 4 mps 708 mmHg 70%

    Tomorrow, 22 September, Saturday

    Time Temperature Precipitation Wind Pressure Humidity
    00:00 +17°C° 0 mm 5 mps 707 mmHg 67%
    01:00 +17°C° 0 mm 5 mps 707 mmHg 66%
    02:00 +17°C° 0 mm 6 mps 707 mmHg 67%
    03:00 +16°C° 0 mm 6 mps 707 mmHg 71%
    04:00 +16°C° 0 mm 5 mps 706 mmHg 74%
    05:00 +16°C° 0 mm 5 mps 706 mmHg 76%
    06:00 +16°C° 0 mm 5 mps 706 mmHg 78%
    07:00 +16°C° 0 mm 5 mps 707 mmHg 79%
    08:00 +16°C° 0 mm 5 mps 707 mmHg 79%
    09:00 +19°C° 0 mm 5 mps 707 mmHg 77%
    10:00 +20°C° 0 mm 4 mps 709 mmHg 76%
    11:00 +15°C° 0 mm 5 mps 709 mmHg 100%
    12:00 +15°C° 0.7 mm 4 mps 709 mmHg 95%
    13:00 +14°C° 0.2 mm 4 mps 709 mmHg 97%
    14:00 +14°C° 0.5 mm 3 mps 709 mmHg 97%
    15:00 +14°C° 0 mm 4 mps 708 mmHg 89%
    16:00 +13°C° 0.2 mm 5 mps 708 mmHg 100%
    17:00 +10°C° 2.3 mm 5 mps 708 mmHg 100%
    18:00 +11°C° 2.9 mm 3 mps 708 mmHg 100%
    19:00 +12°C° 1.7 mm 1 mps 708 mmHg 100%
    20:00 +12°C° 0 mm 2 mps 708 mmHg 100%
    21:00 +10°C° 0.1 mm 3 mps 708 mmHg 100%
    22:00 +10°C° 0.1 mm 2 mps 708 mmHg 99%
    23:00 +12°C° 0 mm 2 mps 709 mmHg 94%

    Day after tomorrow, 23 September, Sunday

    Time Temperature Precipitation Wind Pressure Humidity
    00:00 +10°C° 0 mm 2 mps 709 mmHg 87%
    01:00 +10°C° 0 mm 2 mps 709 mmHg 86%
    02:00 +10°C° 0 mm 3 mps 709 mmHg 86%
    03:00 +9°C° 0 mm 2 mps 709 mmHg 87%
    04:00 +9°C° 0 mm 2 mps 709 mmHg 86%
    05:00 +8°C° 0 mm 3 mps 709 mmHg 91%
    06:00 +8°C° 0 mm 3 mps 709 mmHg 91%
    07:00 +8°C° 0 mm 3 mps 709 mmHg 92%
    08:00 +10°C° 0 mm 4 mps 709 mmHg 91%
    09:00 +10°C° 0 mm 5 mps 710 mmHg 88%
    10:00 +12°C° 0 mm 5 mps 710 mmHg 85%
    11:00 +12°C° 0 mm 5 mps 711 mmHg 81%
    12:00 +13°C° 0 mm 5 mps 711 mmHg 77%
    13:00 +14°C° 0 mm 4 mps 711 mmHg 77%
    14:00 +14°C° 0 mm 5 mps 711 mmHg 75%
    15:00 +14°C° 0 mm 4 mps 711 mmHg 76%
    16:00 +13°C° 0 mm 4 mps 710 mmHg 79%
    17:00 +13°C° 0 mm 4 mps 710 mmHg 79%
    18:00 +12°C° 0 mm 3 mps 710 mmHg 85%
    19:00 +11°C° 0 mm 3 mps 710 mmHg 86%
    20:00 +10°C° 0 mm 3 mps 709 mmHg 86%
    21:00 +9°C° 0 mm 5 mps 708 mmHg 86%
    22:00 +9°C° 0 mm 7 mps 707 mmHg 94%
    23:00 +9°C° 0 mm 8 mps 707 mmHg 97%

    24 September, Monday

    Time Temperature Precipitation Wind Pressure Humidity
    00:00 +8°C° 0 mm 10 mps 705 mmHg 94%
    01:00 +9°C° 0 mm 10 mps 704 mmHg 94%
    02:00 +9°C° 0 mm 11 mps 703 mmHg 94%
    03:00 +9°C° 0 mm 11 mps 701 mmHg 91%
    04:00 +9°C° 0 mm 10 mps 700 mmHg 92%
    05:00 +9°C° 0 mm 13 mps 699 mmHg 91%
    06:00 +10°C° 0 mm 14 mps 698 mmHg 85%
    07:00 +10°C° 0 mm 17 mps 695 mmHg 85%
    08:00 +12°C° 0 mm 14 mps 695 mmHg 89%
    09:00 +13°C° 0 mm 12 mps 696 mmHg 95%
    10:00 +14°C° 1.1 mm 12 mps 697 mmHg 94%
    11:00 +14°C° 0.1 mm 13 mps 697 mmHg 96%
    12:00 +17°C° 0.6 mm 11 mps 697 mmHg 96%
    13:00 +17°C° 0.3 mm 11 mps 697 mmHg 95%
    14:00 +17°C° 0.3 mm 9 mps 698 mmHg 94%
    15:00 +13°C° 0 mm 8 mps 700 mmHg 84%
    16:00 +11°C° 0 mm 7 mps 701 mmHg 84%
    17:00 +10°C° 0 mm 7 mps 702 mmHg 83%
    18:00 +9°C° 0 mm 6 mps 702 mmHg 84%
    19:00 +8°C° 0 mm 6 mps 703 mmHg 86%
    20:00 +8°C° 0 mm 6 mps 704 mmHg 87%
    21:00 +6°C° 0 mm 7 mps 704 mmHg 85%
    22:00 +6°C° 0 mm 7 mps 704 mmHg 87%
    23:00 +5°C° 0 mm 7 mps 704 mmHg 89%

    25 September, Tuesday

    Time Temperature Precipitation Wind Pressure Humidity
    00:00 +5°C° 0 mm 7 mps 705 mmHg 93%
    01:00 +4°C° 0 mm 7 mps 705 mmHg 95%
    02:00 +4°C° 0 mm 7 mps 706 mmHg 96%

    26 September, Wednesday

    Time Temperature Precipitation Wind Pressure Humidity
    Show more